Weather in Tierp

Sweden     60°20′36″N   17°30′53″E
temp.,
°C
wind,
m/s
gust,
m/s
humid.,
%
clouds,
%
prec.,
mm/h
press.,
hPa
HPBL,
m
15 june, tue
tue1523:00+13wsw8168762 0.7 10021298
02:00+12w512755 0.8 1004953
05:00+10wsw398615 0.0 1006317
08:00+14wsw46586 0.0 1008707
11:00+18w46375 0.0 10081909
14:00+21w4828100 0.0 10093318
17:00+17ne464525 0.0 1010541
20:00+17ene355268 0.0 1011407
16 june, wed
wed1623:00+13nne366673 0.0 1014226
02:00+9ene228141 0.0 101538
05:00+9e288016 0.0 1016340
08:00+14se355757 0.0 1016730
11:00+19sw354443 0.0 10151639
14:00+22sw463298 0.0 10141734
17:00+23sw573249 0.0 10141786
20:00+21sw484564 0.0 1014696
17 june, thu
thu1723:00+16sw31056100 0.0 1016311
02:00+12ssw287092 0.0 1017189
05:00+11sw297775 0.0 1018226
08:00+18sw485181 0.0 1018568
11:00+23sw58350 0.0 10181233
14:00+25ssw57305 0.0 10171651
17:00+26sw57250 0.0 10161882
20:00+22s49440 0.0 1016548
18 june, fri
fri1823:00+16s411675 0.0 1017287
02:00+14s4127695 0.0 1016294
05:00+15s312745 0.0 1016347
08:00+20ssw59570 0.0 1014536
11:00+26ssw59472 0.0 10131108
14:00+30ssw6104024 0.0 10122473
17:00+29s594430 0.0 10111178
20:00+19n6108697 1.0 1015472
19 june, sat
sat1923:00+13nne51291100 0.5 1018558
02:00+12nne4128870 0.8 1019525
05:00+12nne311837 0.1 1020512
08:00+16ne46565 0.1 1020697
11:00+19ne44495 0.1 1020854
14:00+21ne44475 0.2 10191049
17:00+21ene455192 0.0 1017828
20:00+18ene357022 0.0 1016404